Location: Unspecified
(56.5167°N, 0.0000°E)
Time: 11:29:55
(UTC+02:00)

Resurs 1-4 Rocket - Pass Details

Date: 08 August 2020
Orbit: 799 x 815 km, 98.6° (Epoch: 23 September)

Event Time Altitude Azimuth Distance (km) Brightness Sun altitude
Rises 03:03:19 0° 20° (NNE) 3,339 7.1 -16.4°
Reaches altitude 10° 03:05:51 10° 28° (NNE) 2,401 5.8 -16.3°
Maximum altitude 03:10:45 37° 96° (E) 1,236 3.1 -16.2°
Enters shadow 03:14:24 16° 156° (SSE) 1,965 3.7 -16.0°
